GW1435 Weather Reports


time (UTC)temp
C
wind
direction
speed
KPH
gust
KPH
rain 1hr
cm
rain 24hr
cm
rain mn
cm
humidity
%
barometer
mb
20260510180058 21 360 8.0 17.7 0.00 0.00 0.00 51 1019.3
20260510175544 21 5 4.8 17.7 0.00 0.00 0.00 51 1019.2
20260510175044 21 78 3.2 11.3 0.00 0.00 0.00 55 1019.3
20260510174558 21 67 1.6 9.7 0.00 0.00 0.00 54 1019.2
20260510174046 21 0 1.6 12.9 0.00 0.00 0.00 55 1019.1
20260510173544 21 76 1.6 16.1 0.00 0.00 0.00 57 1019.0
20260510173105 20 0 4.8 16.1 0.00 0.00 0.00 55 1019.0
20260510172544 20 103 3.2 12.9 0.00 0.00 0.00 55 1019.1
20260510172044 20 94 1.6 14.5 0.00 0.00 0.00 60 1019.1
20260510171557 20 49 4.8 14.5 0.00 0.00 0.00 56 1018.9
20260510171047 20 352 1.6 14.5 0.00 0.00 0.00 56 1018.9
20260510170547 20 84 6.4 16.1 0.00 0.00 0.00 57 1019.0
20260510170106 20 47 3.2 16.1 0.00 0.00 0.00 57 1019.0
20260510165545 20 0 3.2 17.7 0.00 0.00 0.00 59 1018.9
20260510165044 20 46 4.8 17.7 0.00 0.00 0.00 59 1018.8
20260510164553 20 54 4.8 17.7 0.00 0.00 0.00 60 1018.9
20260510164043 20 90 3.2 16.1 0.00 0.00 0.00 61 1018.9
20260510163544 20 24 3.2 16.1 0.00 0.00 0.00 63 1018.8
20260510163051 20 19 3.2 17.7 0.00 0.00 0.00 64 1018.7
20260510162543 20 0 8.0 17.7 0.00 0.00 0.00 64 1018.7
20260510162044 20 33 6.4 17.7 0.00 0.00 0.00 63 1018.7
20260510161551 19 46 3.2 17.7 0.00 0.00 0.00 63 1018.8
20260510161044 20 59 4.8 17.7 0.00 0.00 0.00 64 1018.9
20260510160545 19 98 1.6 17.7 0.00 0.00 0.00 65 1018.9
20260510160052 19 49 8.0 16.1 0.00 0.00 0.00 64 1019.0
20260510155548 19 5 3.2 17.7 0.00 0.00 0.00 65 1018.9
20260510155044 19 344 3.2 17.7 0.00 0.00 0.00 66 1018.9
20260510154550 19 18 4.8 17.7 0.00 0.00 0.00 66 1018.8
20260510154043 19 57 8.0 17.7 0.00 0.00 0.00 67 1018.8
20260510153543 18 0 4.8 14.5 0.00 0.00 0.00 67 1018.8
20260510153053 18 0 1.6 16.1 0.00 0.00 0.00 70 1018.8
20260510152546 18 63 3.2 17.7 0.00 0.00 0.00 69 1018.8
20260510152045 18 0 6.4 17.7 0.00 0.00 0.00 68 1018.8
20260510151558 18 83 6.4 16.1 0.00 0.00 0.00 67 1018.8
20260510151045 18 58 3.2 20.9 0.00 0.00 0.00 69 1018.8
20260510150545 18 11 4.8 20.9 0.00 0.00 0.00 68 1018.7
20260510150055 18 80 6.4 17.7 0.00 0.00 0.00 68 1018.8
20260510145544 18 0 4.8 17.7 0.00 0.00 0.00 70 1018.7
20260510145044 18 32 6.4 17.7 0.00 0.00 0.00 70 1018.6
20260510144553 18 51 4.8 17.7 0.00 0.00 0.00 70 1018.5
20260510144045 18 15 6.4 16.1 0.00 0.00 0.00 71 1018.5
20260510143548 18 0 4.8 16.1 0.00 0.00 0.00 69 1018.6
20260510143052 18 0 3.2 16.1 0.00 0.00 0.00 70 1018.3
20260510142544 18 0 3.2 16.1 0.00 0.00 0.00 71 1018.2
20260510142048 18 36 4.8 16.1 0.00 0.00 0.00 70 1018.1
20260510141600 18 352 1.6 16.1 0.00 0.00 0.00 70 1018.1
20260510141045 17 30 4.8 16.1 0.00 0.00 0.00 71 1018.1
20260510140547 17 40 3.2 17.7 0.00 0.00 0.00 73 1018.0
20260510140055 17 49 3.2 19.3 0.00 0.00 0.00 73 1017.8
20260510135544 17 76 6.4 19.3 0.00 0.00 0.00 72 1017.7
20260510135044 17 32 3.2 16.1 0.00 0.00 0.00 74 1017.7
20260510134556 17 42 3.2 14.5 0.00 0.00 0.00 75 1017.6
20260510134047 17 49 1.6 16.1 0.00 0.00 0.00 76 1017.5
20260510133544 16 49 6.4 16.1 0.00 0.00 0.00 76 1017.6
20260510133111 16 35 0.0 16.1 0.00 0.00 0.00 79 1017.5
20260510132544 16 25 4.8 14.5 0.00 0.00 0.00 78 1017.4
20260510132044 16 53 4.8 14.5 0.00 0.00 0.00 78 1017.3
20260510131602 16 48 3.2 12.9 0.00 0.00 0.00 79 1017.3
20260510131044 16 25 3.2 12.9 0.00 0.00 0.00 78 1017.2
20260510130544 16 33 3.2 12.9 0.00 0.00 0.00 78 1017.3
20260510130057 16 30 0.0 12.9 0.00 0.00 0.00 78 1017.2
20260510125545 16 54 0.0 8.0 0.00 0.00 0.00 78 1017.2
20260510125044 16 0 0.0 8.0 0.00 0.00 0.00 78 1017.2
20260510124557 16 41 1.6 8.0 0.00 0.00 0.00 77 1017.2
20260510124045 16 0 1.6 4.8 0.00 0.00 0.00 77 1017.1
20260510123543 16 0 0.0 1.6 0.00 0.00 0.00 76 1016.9
20260510123101 16 0 0.0 0.0 0.00 0.00 0.00 75 1016.8
20260510122544 16 0 0.0 1.6 0.00 0.00 0.00 75 1016.8
20260510122045 16 0 0.0 1.6 0.00 0.00 0.00 74 1016.8
20260510121553 16 0 0.0 0.0 0.00 0.00 0.00 74 1016.8
20260510121045 16 0 0.0 0.0 0.00 0.00 0.00 73 1016.6
20260510120545 16 0 0.0 4.8 0.00 0.00 0.00 73 1016.6
20260510120050 16 0 0.0 4.8 0.00 0.00 0.00 72 1016.5
20260510115548 16 0 0.0 8.0 0.00 0.00 0.00 72 1016.4
20260510115044 16 0 0.0 8.0 0.00 0.00 0.00 71 1016.4
20260510114554 16 0 0.0 8.0 0.00 0.00 0.00 70 1016.3
20260510114044 16 0 0.0 8.0 0.00 0.00 0.00 70 1016.3
20260510113544 16 0 0.0 6.4 0.00 0.00 0.00 70 1016.2
20260510113051 16 22 0.0 0.0 0.00 0.00 0.00 71 1016.2
20260510112544 16 0 0.0 0.0 0.00 0.00 0.00 71 1016.1
20260510112048 16 0 0.0 0.0 0.00 0.00 0.00 71 1016.0
20260510111551 16 0 0.0 0.0 0.00 0.00 0.00 72 1015.9
20260510111044 16 0 0.0 0.0 0.00 0.00 0.00 72 1015.8
20260510110547 16 0 0.0 1.6 0.00 0.00 0.00 73 1015.6
20260510110054 16 0 0.0 1.6 0.00 0.00 0.00 74 1015.7
20260510105545 16 0 0.0 0.0 0.00 0.00 0.00 74 1015.6
20260510105045 15 0 0.0 0.0 0.00 0.00 0.00 75 1015.3
20260510104550 15 0 0.0 0.0 0.00 0.00 0.00 75 1015.1
20260510104046 15 0 0.0 0.0 0.00 0.00 0.00 76 1015.1
20260510103544 15 0 0.0 3.2 0.00 0.00 0.00 76 1015.1
20260510103055 15 0 0.0 3.2 0.00 0.00 0.00 77 1015.2
20260510102544 15 0 0.0 8.0 0.00 0.00 0.00 78 1015.2
20260510102045 14 0 0.0 11.3 0.00 0.00 0.00 80 1015.3
20260510101555 14 0 1.6 11.3 0.00 0.00 0.00 82 1015.3
20260510101045 13 0 0.0 0.0 0.00 0.00 0.00 84 1014.9
20260510100548 13 0 0.0 0.0 0.00 0.00 0.00 83 1014.8
20260510100053 13 0 0.0 0.0 0.00 0.00 0.00 83 1014.8
20260510095547 13 0 0.0 0.0 0.00 0.00 0.00 83 1014.6
20260510095044 13 0 0.0 0.0 0.00 0.00 0.00 82 1014.6
20260510094600 13 0 0.0 0.0 0.00 0.00 0.00 82 1014.5
20260510094045 13 0 0.0 0.0 0.00 0.00 0.00 82 1014.5
20260510093545 13 0 0.0 0.0 0.00 0.00 0.00 82 1014.4
20260510093052 13 0 0.0 0.0 0.00 0.00 0.00 82 1014.6
20260510092545 13 0 0.0 0.0 0.00 0.00 0.00 81 1014.5
20260510092045 13 0 0.0 0.0 0.00 0.00 0.00 81 1014.4
20260510091600 13 0 0.0 0.0 0.00 0.00 0.00 81 1014.5
20260510091044 13 0 0.0 0.0 0.00 0.00 0.00 81 1014.6
20260510090545 13 0 0.0 0.0 0.00 0.00 0.00 81 1014.6
20260510090112 13 0 0.0 0.0 0.00 0.00 0.00 81 1014.6
20260510085550 13 0 0.0 0.0 0.00 0.00 0.00 81 1014.7
20260510085044 13 0 0.0 0.0 0.00 0.00 0.00 80 1014.7
20260510084558 13 0 0.0 0.0 0.00 0.00 0.00 80 1014.7
20260510084044 14 0 0.0 0.0 0.00 0.00 0.00 80 1014.8
20260510083544 14 0 0.0 0.0 0.00 0.00 0.00 80 1014.8
20260510083056 14 0 0.0 0.0 0.00 0.00 0.00 80 1014.7
20260510082548 14 0 0.0 0.0 0.00 0.00 0.00 79 1014.7
20260510082044 14 0 0.0 0.0 0.00 0.00 0.00 79 1014.7
20260510081557 14 0 0.0 0.0 0.00 0.00 0.00 79 1014.5
20260510081044 14 0 0.0 0.0 0.00 0.00 0.00 78 1014.4
20260510080548 14 0 0.0 0.0 0.00 0.00 0.00 77 1014.3
20260510080052 14 0 0.0 0.0 0.00 0.00 0.00 77 1014.3
20260510075544 14 0 0.0 0.0 0.00 0.00 0.00 77 1014.3
20260510075049 14 0 0.0 0.0 0.00 0.00 0.00 77 1014.3
20260510074550 14 0 0.0 0.0 0.00 0.00 0.00 77 1014.3
20260510074044 14 0 0.0 0.0 0.00 0.00 0.00 77 1014.2
20260510073545 14 0 0.0 0.0 0.00 0.00 0.00 77 1014.3
20260510073111 14 0 0.0 0.0 0.00 0.00 0.00 77 1014.2
20260510072544 14 0 0.0 0.0 0.00 0.00 0.00 78 1014.2
20260510072044 14 0 0.0 0.0 0.00 0.00 0.00 78 1014.2
20260510071603 14 0 0.0 0.0 0.00 0.00 0.00 77 1014.0
20260510071044 14 0 0.0 0.0 0.00 0.00 0.00 76 1014.0
20260510070545 14 0 0.0 0.0 0.00 0.00 0.00 76 1013.9
20260510070050 14 0 0.0 0.0 0.00 0.00 0.00 76 1013.8
20260510065546 14 0 0.0 0.0 0.00 0.03 0.00 76 1013.8
20260510065044 15 0 0.0 0.0 0.00 0.03 0.00 75 1013.8
20260510064559 15 0 0.0 0.0 0.00 0.03 0.00 75 1013.8
20260510064044 15 0 0.0 0.0 0.00 0.03 0.00 75 1013.9
20260510063545 15 0 0.0 0.0 0.00 0.03 0.00 74 1013.8
20260510063059 15 0 0.0 0.0 0.00 0.03 0.00 74 1013.9
20260510062544 15 0 0.0 0.0 0.00 0.03 0.00 73 1014.0
20260510062047 15 0 0.0 0.0 0.00 0.03 0.00 73 1014.1
20260510061551 15 0 0.0 0.0 0.00 0.03 0.00 73 1014.1
20260510061048 15 0 0.0 0.0 0.00 0.03 0.00 73 1014.0
20260510060547 15 0 0.0 0.0 0.00 0.03 0.00 72 1013.9
20260510060053 15 0 0.0 0.0 0.00 0.03 0.00 72 1013.9
20260510055545 15 0 0.0 0.0 0.00 0.03 0.00 71 1013.8
20260510055048 15 0 0.0 0.0 0.00 0.03 0.00 71 1013.8
20260510054552 16 0 0.0 0.0 0.00 0.03 0.00 70 1013.9
20260510054044 16 0 0.0 0.0 0.00 0.03 0.00 69 1013.8
20260510053544 16 0 0.0 0.0 0.00 0.03 0.00 68 1013.9
20260510053056 16 0 0.0 0.0 0.00 0.03 0.00 68 1013.9
20260510052545 16 0 0.0 0.0 0.00 0.03 0.00 67 1014.1
20260510052045 16 0 0.0 0.0 0.00 0.03 0.00 68 1014.1
20260510051557 16 0 0.0 0.0 0.00 0.03 0.00 67 1014.2
20260510051105 16 0 0.0 0.0 0.00 0.03 0.00 68 1014.0
20260510050544 16 0 0.0 0.0 0.00 0.03 0.00 67 1013.9
20260510050053 16 0 0.0 0.0 0.00 0.03 0.00 66 1013.8
20260510045545 16 0 0.0 0.0 0.00 0.08 0.03 66 1013.7
20260510045047 17 0 0.0 0.0 0.00 0.08 0.03 66 1013.7
20260510044553 17 0 0.0 0.0 0.00 0.08 0.03 65 1013.6
20260510044046 17 0 0.0 0.0 0.00 0.08 0.03 65 1013.6
20260510043544 17 0 0.0 0.0 0.00 0.08 0.03 63 1013.6
20260510043107 17 0 0.0 0.0 0.00 0.08 0.03 62 1013.6
20260510042545 17 0 0.0 0.0 0.00 0.08 0.03 61 1013.6
20260510042044 17 0 0.0 0.0 0.00 0.08 0.03 61 1013.7
20260510041555 17 0 0.0 0.0 0.00 0.08 0.03 61 1013.7
20260510041047 17 0 0.0 0.0 0.00 0.08 0.03 62 1013.7
20260510040546 17 0 0.0 0.0 0.00 0.08 0.03 63 1013.6
20260510040110 17 0 0.0 0.0 0.00 0.08 0.03 63 1013.6
20260510035544 17 0 0.0 0.0 0.00 0.08 0.03 64 1013.5
20260510035048 17 0 0.0 0.0 0.00 0.08 0.03 66 1013.3
20260510034556 16 0 0.0 0.0 0.00 0.08 0.03 67 1013.2
20260510034045 16 0 0.0 0.0 0.00 0.08 0.03 68 1013.2
20260510033545 16 0 0.0 0.0 0.00 0.08 0.03 68 1013.2
20260510033101 16 0 0.0 0.0 0.00 0.08 0.03 69 1013.3
20260510032548 16 0 0.0 0.0 0.00 0.08 0.03 69 1013.3
20260510032044 16 0 0.0 0.0 0.00 0.08 0.03 69 1013.1
20260510031557 16 0 0.0 0.0 0.00 0.08 0.03 70 1013.1
20260510031044 16 0 0.0 0.0 0.00 0.08 0.03 70 1013.0
20260510030546 16 0 0.0 0.0 0.00 0.08 0.03 71 1013.0
20260510030056 16 0 0.0 0.0 0.00 0.08 0.03 71 1013.0
20260510025544 16 0 0.0 0.0 0.00 0.08 0.03 70 1012.9
20260510025047 16 0 0.0 0.0 0.00 0.08 0.03 69 1012.8
20260510024553 17 0 0.0 0.0 0.00 0.08 0.03 68 1012.8
20260510024047 17 0 0.0 0.0 0.00 0.08 0.03 69 1012.5
20260510023546 17 0 0.0 0.0 0.00 0.08 0.03 68 1012.5
20260510023054 17 0 0.0 0.0 0.00 0.08 0.03 67 1012.5
20260510022545 17 0 0.0 0.0 0.00 0.08 0.03 66 1012.4
20260510022044 17 0 0.0 0.0 0.00 0.08 0.03 65 1012.4
20260510021601 18 0 0.0 0.0 0.00 0.08 0.03 67 1012.2
20260510021044 18 0 0.0 0.0 0.00 0.08 0.03 64 1012.2
20260510020546 18 0 0.0 0.0 0.00 0.08 0.03 63 1012.1
20260510020053 18 0 0.0 0.0 0.00 0.08 0.03 64 1011.9
20260510015545 18 0 0.0 0.0 0.00 0.08 0.03 63 1011.8
20260510015044 18 0 0.0 0.0 0.00 0.08 0.03 63 1011.8
20260510014555 18 0 0.0 0.0 0.00 0.08 0.03 61 1011.6
20260510014046 19 0 0.0 0.0 0.00 0.08 0.03 60 1011.6
20260510013547 19 0 0.0 0.0 0.00 0.08 0.03 59 1011.5
20260510013051 20 0 0.0 0.0 0.00 0.08 0.03 57 1011.5
20260510012545 20 0 0.0 0.0 0.00 0.08 0.03 54 1011.5
20260510012045 20 0 0.0 0.0 0.00 0.08 0.03 53 1011.5
20260510011554 21 0 0.0 0.0 0.00 0.08 0.03 53 1011.4
20260510011044 21 0 0.0 0.0 0.00 0.08 0.03 53 1011.5
20260510010545 21 0 0.0 0.0 0.00 0.08 0.03 51 1011.3
20260510010052 22 0 0.0 0.0 0.00 0.08 0.03 50 1011.3
20260510005545 22 0 0.0 0.0 0.00 0.08 0.03 47 1011.1
20260510005044 22 0 0.0 0.0 0.00 0.08 0.03 44 1011.2
20260510004556 23 0 0.0 0.0 0.00 0.08 0.03 44 1011.1
20260510004046 23 0 0.0 0.0 0.00 0.08 0.03 41 1011.0
20260510003545 24 0 0.0 0.0 0.00 0.08 0.03 40 1011.0
20260510003057 24 0 0.0 0.0 0.00 0.08 0.03 39 1010.9
20260510002549 24 0 0.0 0.0 0.00 0.08 0.03 41 1010.9
20260510002044 25 0 0.0 0.0 0.00 0.08 0.03 38 1010.8
20260510001555 25 0 0.0 0.0 0.00 0.08 0.03 39 1010.9
20260510001045 25 0 0.0 0.0 0.00 0.08 0.03 38 1010.8
20260510000544 26 0 0.0 0.0 0.00 0.08 0.03 42 1010.8
20260510000057 26 0 0.0 0.0 0.00 0.08 0.03 45 1010.8
20260509235545 27 0 0.0 0.0 0.00 0.08 0.03 37 1010.8
20260509235045 27 0 0.0 0.0 0.00 0.08 0.03 36 1010.7
20260509234553 27 0 0.0 0.0 0.00 0.08 0.03 35 1010.6
20260509234047 27 0 0.0 0.0 0.00 0.08 0.03 34 1010.7
20260509233548 27 0 0.0 0.0 0.00 0.08 0.03 33 1010.7
20260509233053 27 0 0.0 0.0 0.00 0.08 0.03 30 1010.7
20260509232545 27 0 0.0 0.0 0.00 0.08 0.03 32 1010.7
20260509232045 27 0 0.0 0.0 0.00 0.08 0.03 28 1010.8
20260509231558 28 0 0.0 1.6 0.00 0.08 0.03 28 1010.8
20260509231044 28 0 0.0 1.6 0.00 0.08 0.03 29 1010.7
20260509230548 28 0 0.0 3.2 0.00 0.08 0.03 27 1010.8
20260509230058 28 0 0.0 3.2 0.00 0.08 0.03 29 1010.7
20260509225544 28 0 0.0 4.8 0.00 0.08 0.03 28 1010.7
20260509225047 28 0 0.0 4.8 0.00 0.08 0.03 27 1010.6
20260509224559 28 0 0.0 0.0 0.00 0.08 0.03 27 1010.5
20260509224044 28 0 0.0 6.4 0.00 0.08 0.03 27 1010.6
20260509223545 28 0 0.0 11.3 0.00 0.08 0.03 25 1010.5
20260509223059 28 0 0.0 11.3 0.00 0.08 0.03 26 1010.5
20260509222546 28 0 1.6 11.3 0.00 0.08 0.03 25 1010.7
20260509222045 28 0 0.0 8.0 0.00 0.08 0.03 28 1010.5
20260509221605 27 0 0.0 8.0 0.00 0.08 0.03 25 1010.4
20260509221045 28 0 0.0 8.0 0.00 0.08 0.03 25 1010.5
20260509220546 28 0 0.0 12.9 0.00 0.08 0.03 28 1010.5
20260509220051 28 0 0.0 12.9 0.00 0.08 0.03 28 1010.5
20260509215545 28 252 0.0 12.9 0.00 0.08 0.03 27 1010.5
20260509215045 27 0 1.6 12.9 0.00 0.08 0.03 27 1010.5
20260509214601 27 0 0.0 6.4 0.00 0.08 0.03 29 1010.5
20260509214046 27 0 0.0 6.4 0.00 0.08 0.03 28 1010.4
20260509213546 27 0 0.0 9.7 0.00 0.08 0.03 26 1010.5
20260509213054 27 257 0.0 9.7 0.00 0.08 0.03 31 1010.4
20260509212544 27 0 3.2 12.9 0.00 0.08 0.03 27 1010.5
20260509212044 27 46 3.2 12.9 0.00 0.08 0.03 28 1010.5
20260509211557 28 285 1.6 12.9 0.00 0.08 0.03 29 1010.5
20260509211045 28 263 0.0 12.9 0.00 0.08 0.03 28 1010.5
20260509210545 28 0 1.6 12.9 0.00 0.08 0.03 28 1010.6
20260509210113 28 0 0.0 9.7 0.00 0.08 0.03 29 1010.5
20260509205544 28 197 3.2 9.7 0.00 0.08 0.03 26 1010.7
20260509205044 28 0 0.0 12.9 0.00 0.08 0.03 30 1010.7
20260509204558 27 0 0.0 12.9 0.00 0.08 0.03 29 1010.8
20260509204045 28 76 0.0 12.9 0.00 0.08 0.03 27 1010.7
20260509203545 28 44 1.6 9.7 0.00 0.08 0.03 28 1010.7
20260509203056 27 0 0.0 8.0 0.00 0.08 0.03 25 1010.8
20260509202546 27 0 0.0 8.0 0.00 0.08 0.03 28 1010.9
20260509202046 27 0 0.0 3.2 0.00 0.08 0.03 25 1010.9
20260509201559 27 0 0.0 12.9 0.00 0.08 0.03 27 1010.9
20260509201045 27 0 0.0 12.9 0.00 0.08 0.03 27 1011.1
20260509200547 27 42 1.6 12.9 0.00 0.08 0.03 26 1011.1
20260509195545 27 0 0.0 12.9 0.00 0.08 0.03 27 1011.3
20260509195047 28 0 0.0 12.9 0.00 0.08 0.03 29 1011.3
20260509194552 27 273 0.0 12.9 0.00 0.08 0.03 30 1011.5
20260509194047 28 0 0.0 8.0 0.00 0.08 0.03 27 1011.4
20260509193546 27 0 1.6 8.0 0.00 0.08 0.03 28 1011.5
20260509193053 27 0 0.0 9.7 0.00 0.08 0.03 30 1011.4
20260509192545 27 302 0.0 9.7 0.00 0.08 0.03 25 1011.5
20260509192046 27 232 1.6 11.3 0.00 0.08 0.03 27 1011.5
20260509191601 27 0 1.6 11.3 0.00 0.08 0.03 33 1011.5
20260509191047 27 263 1.6 11.3 0.00 0.08 0.03 28 1011.4
20260509190544 27 0 1.6 8.0 0.00 0.08 0.03 27 1011.4
20260509190108 27 0 0.0 12.9 0.00 0.08 0.03 34 1011.4
20260509185545 27 0 0.0 19.3 0.00 0.08 0.03 30 1011.4
20260509185046 27 19 3.2 19.3 0.00 0.08 0.03 29 1011.5
20260509184554 27 0 4.8 19.3 0.00 0.08 0.03 33 1011.4
20260509184045 26 0 1.6 12.9 0.00 0.08 0.03 34 1011.4
20260509183545 26 221 1.6 12.9 0.00 0.08 0.03 32 1011.4
20260509183057 26 290 0.0 11.3 0.00 0.08 0.03 33 1011.4
20260509182544 26 0 0.0 11.3 0.00 0.08 0.03 36 1011.3
20260509182045 26 37 1.6 11.3 0.00 0.08 0.03 32 1011.4
20260509181600 26 0 0.0 16.1 0.00 0.08 0.03 30 1011.4
20260509181045 26 54 3.2 16.1 0.00 0.08 0.03 31 1011.4
20260509180545 26 203 0.0 16.1 0.00 0.08 0.03 29 1011.4